829  
ASUS42 KMLB 241307  
RWRMLB  
HOURLY WEATHER ROUNDUP AROUND FLORIDA  
NATIONAL WEATHER SERVICE OFFICE MELBOURNE FL  
900 AM EDT THU MAY 24 2018  
 
CITY SKY/WX TMP DP RH WIND PRES REMARKS
 
MELBOURNE FAIR 81 73 76 VRB3 30.11R  
FORT PIERCE FAIR 81 75 82 E5 30.10R  
ORLANDO INTL PTSUNNY 76 74 93 SE3 30.12R  
DAYTONA BEACH FAIR 77 74 90 S5 30.12R  
VERO BEACH FAIR 81 75 82 NE7 30.10R  

   
..ELSEWHERE ACROSS CENTRAL FLORIDA
 
 
 
CITY SKY/WX TMP DP RH WIND PRES REMARKS
 
PATRICK AFB FAIR 80 76 89 NE3 30.11R  
KSC FAIR 78 77 96 CALM 30.11R  
CAPE CANAVERAL FAIR 79 74 83 CALM 30.11R  
TITUSVILLE MOSUNNY 81 72 74 W6 30.12S  
ORLANDO EXEC PTSUNNY 78 74 87 S5 30.11S  
LEESBURG FAIR 79 74 84 S6 30.12R  
SANFORD FAIR 78 73 84 SE5 30.11S  
DELAND FAIR 77 73 88 S7 30.11S  
NEW SMYRNA BCH MOSUNNY 79 73 83 CALM 30.13R  
ORMOND BEACH SUNNY 77 73 88 CALM 30.13R  
WINTER HAVEN FAIR 78 74 87 E6 30.13R  
KISSIMMEE FAIR 78 73 84 S5 30.13R  
OKEECHOBEE FAIR 79 73 83 CALM 30.10R  
TAMPA PTSUNNY 79 71 76 SE5 30.11R  

   
..NORTHERN FLORIDA
 
 
 
CITY SKY/WX TMP DP RH WIND PRES REMARKS
 
PALM COAST MOSUNNY 77 73 88 VRB5 30.12R  
ST AUGUSTINE FAIR 78 72 81 S5 30.12R  
OCALA FAIR 76 71 85 S6 30.12R  
GAINESVILLE FAIR 78 70 76 S3 30.13R  
JACKSONVILLE PTSUNNY 80 71 74 SW5 30.10R  
TALLAHASSEE FOG 74 72 93 SE5 30.11R VSB 1/2  

   
..ALONG THE SOUTHEAST COAST TO THE KEYS
 
 
 
CITY SKY/WX TMP DP RH WIND PRES REMARKS
 
STUART HVY RAIN 81 73 78 SE7 30.11R  
WEST PALM BCH PTSUNNY 79 75 87 SE10 30.09R  
MIAMI CLOUDY 80 74 81 SE10 30.07R  
KEY WEST FAIR 80 76 87 E8 30.05R  

   
..MARINE REPORTS
 
 
 
STATION/POSITION TIME TEMP WIND PRES WAVE SWELL
 
AIR SEA DIR/SP/G HT/PER HT/PER  
(UTC) (F) (DEG/KT/KT) (MB) (FT/S) (FT/S)  
ST AUGUSTINE FP 1200 75 76 170/ 6/ 7 1019.7R  
20NM E CAPE CANA 1250 78 78 330/ 2/ 4 1019.9R 2/ 8 2/ 8  
TRIDENT PIER 1248 81 80 280/ 1/ 2 1021.3R  
SEBASTIAN INLET 1245 78 83 20/ 2 1020.0S  
4NM E PORT CANAV 1253 79 N/A 2/ 8  
6NM NE FPR INLET 1230 77 N/A 2/ 9  
SETTLEMENT PT GB 1200 78 120/ 8/ 10 1018.8R  

 
 
 
CLICK HERE TO GO TO PREVIOUS BULLETINS.

The Nexlab FL Page Main Text Page